Weather History for Kimball, NE

Change the Weather History Date:

Tuesday, December 3, 2013

  Actual Average (KSNY) Record (KSNY)
Temperature  
Mean Temperature 30 °F 30 °F  
Max Temperature 50 °F 43 °F 69 °F (1959)
Min Temperature 11 °F 18 °F -6 °F (1978)
Degree Days  
Heating Degree Days 35 35  
Month to date heating degree days 103  
Since 1 July heating degree days 1525  
Cooling Degree Days 0 0  
Month to date cooling degree days 0  
Year to date cooling degree days 830  
Moisture  
Dew Point 17 °F    
Average Humidity 70    
Maximum Humidity 86    
Minimum Humidity 32    
Precipitation  
Precipitation 0.00 in 0.02 in 0.10 in (1973)
Month to date precipitation 0.06  
Year to date precipitation 18.06  
Sea Level Pressure  
Sea Level Pressure 29.60 in    
Wind  
Wind Speed 15 mph (NNW)    
Max Wind Speed 29 mph    
Max Gust Speed 38 mph    
Visibility 8 miles    
Events Snow    
T = Trace of Precipitation, MM = Missing Value Source: NWS Daily Summary

Daily Weather History Graph

Daily Weather History Graph

Search for Another Location

Airport:

Trip Planner

Search our weather history database for the weather conditions in past years. The results will help you decide how hot, cold, wet, or windy it might be!

Date:

Astronomy

Dec. 03, 2013 Rise Set
Actual Time 8:03 AM CST 5:26 PM CST
Civil Twilight 7:32 AM CST 5:56 PM CST
Nautical Twilight 6:57 AM CST 6:31 PM CST
Astronomical Twilight 6:24 AM CST 7:04 PM CST
Moon 8:34 AM CST (12/3) 6:32 PM CST (12/3)
Length of Visible Light 10h 24m
Length of Day
9h 23m
New Moon, 1% of the Moon is Illuminated
Dec 3
New Moon
Dec 9
First Quarter
Dec 17
Full
Dec 25
Last Quarter
Jan 1
New

Hourly Weather History & Observations

Time (CST) Temp. Windchill Dew Point Humidity Pressure Visibility Wind Dir Wind Speed Gust Speed Precip Events Conditions
12:15 AM 47.5 °F - 22.3 °F 37% 29.55 in 10.0 mi WNW 11.5 mph - N/A   Scattered Clouds
12:35 AM 46.6 °F - 22.5 °F 39% 29.53 in 10.0 mi West 11.5 mph - N/A   Clear
12:55 AM 49.3 °F - 20.3 °F 32% 29.53 in 10.0 mi West 24.2 mph 28.8 mph N/A   Clear
1:15 AM 48.9 °F - 20.3 °F 32% 29.53 in 10.0 mi West 17.3 mph 23.0 mph N/A   Clear
1:35 AM 47.3 °F - 21.2 °F 36% 29.53 in 10.0 mi West 12.7 mph - N/A   Clear
1:55 AM 43.2 °F 38.4 °F 22.1 °F 43% 29.53 in 10.0 mi WNW 8.1 mph - N/A   Clear
2:15 AM 39.9 °F 37.8 °F 22.5 °F 50% 29.53 in 10.0 mi West 3.5 mph - N/A   Clear
2:35 AM 41.0 °F 38.0 °F 22.1 °F 47% 29.53 in 10.0 mi West 4.6 mph - N/A   Clear
2:55 AM 36.9 °F 30.1 °F 23.0 °F 57% 29.53 in 10.0 mi South 9.2 mph - N/A   Clear
3:15 AM 35.6 °F 29.2 °F 23.4 °F 61% 29.53 in 10.0 mi SW 8.1 mph - N/A   Clear
3:35 AM 38.5 °F 32.1 °F 23.5 °F 55% 29.52 in 10.0 mi SW 9.2 mph - N/A   Clear
3:55 AM 37.4 °F 32.8 °F 23.0 °F 56% 29.51 in 10.0 mi SSW 5.8 mph - N/A   Clear
4:15 AM 39.9 °F 35.1 °F 23.5 °F 52% 29.51 in 10.0 mi WSW 6.9 mph - N/A   Clear
4:35 AM 41.4 °F 33.0 °F 25.2 °F 53% 29.50 in 10.0 mi West 17.3 mph - N/A   Clear
4:55 AM 43.9 °F 36.8 °F 24.8 °F 47% 29.50 in 10.0 mi West 15.0 mph - N/A   Clear
5:15 AM 42.4 °F 37.0 °F 25.0 °F 50% 29.50 in 10.0 mi SW 9.2 mph - N/A   Scattered Clouds
5:35 AM 38.7 °F 31.8 °F 25.2 °F 58% 29.49 in 10.0 mi West 10.4 mph - N/A   Clear
5:55 AM 36.3 °F 32.5 °F 25.3 °F 64% 29.49 in 10.0 mi SSW 4.6 mph - N/A   Clear
6:15 AM 38.7 °F - 23.7 °F 55% 29.49 in 10.0 mi Calm Calm - N/A   Clear
6:35 AM 35.2 °F - 24.8 °F 66% 29.49 in 10.0 mi Calm Calm - N/A   Scattered Clouds
6:55 AM 34.5 °F - 25.7 °F 70% 29.49 in 10.0 mi Calm Calm - N/A   Scattered Clouds
7:15 AM 36.3 °F - 24.8 °F 63% 29.47 in 10.0 mi Calm Calm - N/A   Scattered Clouds
7:35 AM 33.1 °F - 24.6 °F 71% 29.48 in 10.0 mi Calm Calm - N/A   Scattered Clouds
7:55 AM 34.7 °F - 25.0 °F 68% 29.49 in 10.0 mi Calm Calm - N/A   Mostly Cloudy
8:15 AM 35.6 °F - 26.1 °F 68% 29.48 in 10.0 mi Calm Calm - N/A   Overcast
8:35 AM 37.0 °F - 25.0 °F 62% 29.48 in 10.0 mi Calm Calm - N/A   Overcast
8:55 AM 38.5 °F 34.1 °F 25.5 °F 60% 29.50 in 10.0 mi NW 5.8 mph - N/A   Overcast
9:15 AM 41.2 °F 34.5 °F 26.4 °F 56% 29.51 in 10.0 mi North 11.5 mph 20.7 mph N/A   Overcast
9:35 AM 40.8 °F 32.3 °F 26.6 °F 57% 29.53 in 10.0 mi NNW 17.3 mph 23.0 mph N/A   Overcast
9:55 AM 35.4 °F 24.3 °F 28.9 °F 77% 29.55 in 10.0 mi North 20.7 mph - N/A   Overcast
10:15 AM 33.4 °F 20.1 °F 28.9 °F 84% 29.57 in 10.0 mi NNW 27.6 mph - N/A   Overcast
10:35 AM 29.3 °F 16.2 °F 24.4 °F 82% 29.55 in 10.0 mi North 20.7 mph 24.2 mph N/A   Overcast
10:37 AM 28.4 °F 14.4 °F 24.8 °F 86% 29.55 in 10.0 mi North 23.0 mph - N/A   Overcast
10:57 AM 28.4 °F 16.6 °F 23.0 °F 80% 29.57 in 10.0 mi NNW 16.1 mph - N/A   Overcast
11:15 AM 29.8 °F 18.4 °F 23.2 °F 76% 29.59 in 10.0 mi NNW 16.1 mph 20.7 mph N/A   Overcast
11:35 AM 28.8 °F 17.0 °F 22.1 °F 76% 29.59 in 10.0 mi NNW 16.1 mph - N/A   Overcast
11:55 AM 28.2 °F 15.2 °F 22.1 °F 78% 29.56 in 10.0 mi North 19.6 mph 23.0 mph N/A   Overcast
11:56 AM 28.4 °F 15.4 °F 21.2 °F 74% 29.56 in 10.0 mi North 19.6 mph 23.0 mph N/A   Overcast
12:15 PM 27.5 °F 13.5 °F 21.0 °F 77% 29.57 in 10.0 mi NNW 21.9 mph 26.5 mph N/A   Overcast
12:35 PM 25.0 °F 9.5 °F 19.8 °F 81% 29.59 in 10.0 mi NNW 24.2 mph 31.1 mph N/A   Overcast
12:55 PM 24.3 °F 8.6 °F 18.9 °F 80% 29.60 in 10.0 mi NNW 24.2 mph 27.6 mph N/A   Overcast
12:59 PM 24.8 °F 8.7 °F 17.6 °F 74% 29.60 in 10.0 mi North 26.5 mph 33.4 mph N/A   Overcast
1:15 PM 23.9 °F 7.2 °F 16.2 °F 72% 29.61 in 10.0 mi NNW 27.6 mph 34.5 mph N/A   Overcast
1:17 PM 24.8 °F 8.1 °F 15.8 °F 69% 29.61 in 10.0 mi NNW 28.8 mph 34.5 mph N/A   Overcast
1:35 PM 24.3 °F 7.4 °F 14.9 °F 68% 29.61 in 10.0 mi NNW 28.8 mph 34.5 mph N/A   Overcast
1:37 PM 24.8 °F 8.1 °F 15.8 °F 69% 29.61 in 10.0 mi NNW 28.8 mph 34.5 mph N/A   Overcast
1:55 PM 23.5 °F 6.7 °F 15.1 °F 70% 29.61 in 10.0 mi North 27.6 mph 38.0 mph N/A   Overcast
1:57 PM 23.0 °F 6.0 °F 15.8 °F 74% 29.61 in 10.0 mi North 27.6 mph 35.7 mph N/A   Overcast
2:15 PM 22.8 °F 6.0 °F 14.9 °F 72% 29.60 in 10.0 mi NNW 26.5 mph 32.2 mph N/A   Overcast
2:20 PM 23.0 °F 6.3 °F 15.8 °F 74% 29.60 in 10.0 mi NNW 26.5 mph 32.2 mph N/A   Overcast
2:35 PM 22.6 °F 6.4 °F 14.4 °F 71% 29.61 in 10.0 mi North 24.2 mph 33.4 mph N/A   Overcast
2:37 PM 21.2 °F 4.9 °F 14.0 °F 74% 29.61 in 10.0 mi NNW 23.0 mph 33.4 mph N/A   Overcast
2:55 PM 21.0 °F 3.9 °F 12.7 °F 70% 29.59 in 10.0 mi North 25.3 mph 36.8 mph N/A   Overcast
2:57 PM 21.2 °F 3.9 °F 12.2 °F 68% 29.59 in 10.0 mi North 26.5 mph 33.4 mph N/A   Overcast
3:15 PM 21.2 °F 4.5 °F 13.1 °F 71% 29.57 in 10.0 mi North 24.2 mph 29.9 mph N/A   Overcast
3:17 PM 21.2 °F 5.2 °F 12.2 °F 68% 29.57 in 10.0 mi North 21.9 mph 29.9 mph N/A   Overcast
3:35 PM 20.3 °F 3.7 °F 13.1 °F 74% 29.61 in 10.0 mi North 23.0 mph 29.9 mph N/A   Overcast
3:37 PM 19.4 °F 1.4 °F 12.2 °F 74% 29.61 in 10.0 mi North 26.5 mph 31.1 mph N/A   Overcast
3:55 PM 20.1 °F 3.8 °F 13.1 °F 74% 29.60 in 7.0 mi North 21.9 mph 27.6 mph N/A   Overcast
3:57 PM 19.4 °F 2.5 °F 12.2 °F 74% 29.60 in 7.0 mi North 23.0 mph 27.6 mph N/A   Overcast
4:10 PM 19.2 °F 3.0 °F 12.7 °F 76% 29.60 in 5.0 mi North 20.7 mph 26.5 mph N/A   Haze
4:23 PM 17.6 °F 0.5 °F 12.2 °F 79% 29.60 in 10.0 mi North 21.9 mph 27.6 mph N/A   Overcast
4:35 PM 18.3 °F 1.0 °F 11.8 °F 76% 29.62 in 10.0 mi NNW 23.0 mph - N/A   Overcast
4:37 PM 17.6 °F 0.1 °F 12.2 °F 79% 29.62 in 10.0 mi NNW 23.0 mph - N/A   Overcast
4:55 PM 17.6 °F 0.9 °F 11.1 °F 76% 29.63 in 10.0 mi North 20.7 mph 28.8 mph N/A   Overcast
4:57 PM 17.6 °F 0.5 °F 10.4 °F 73% 29.63 in 10.0 mi North 21.9 mph 26.5 mph N/A   Overcast
5:15 PM 17.1 °F -0.6 °F 11.1 °F 77% 29.65 in 7.0 mi NNW 23.0 mph - N/A Snow Light Snow
5:24 PM 17.6 °F 0.9 °F 10.4 °F 73% 29.64 in 1.8 mi North 20.7 mph 27.6 mph N/A Snow Light Snow
5:35 PM 16.3 °F -0.8 °F 11.8 °F 82% 29.64 in 1.5 mi North 20.7 mph 26.5 mph N/A Snow Light Snow
5:55 PM 16.3 °F -0.4 °F 11.7 °F 82% 29.65 in 1.5 mi North 19.6 mph 26.5 mph N/A Snow Light Snow
5:58 PM 15.8 °F -1.1 °F 10.4 °F 79% 29.66 in 1.2 mi North 19.6 mph - N/A Snow Light Snow
6:15 PM 15.8 °F -1.1 °F 11.7 °F 84% 29.66 in 2.0 mi North 19.6 mph 26.5 mph N/A Snow Light Snow
6:35 PM 15.8 °F -1.1 °F 10.9 °F 81% 29.66 in 7.0 mi North 19.6 mph 28.8 mph N/A Snow Light Snow
6:40 PM 15.8 °F -0.2 °F 10.4 °F 79% 29.68 in 7.0 mi North 17.3 mph 25.3 mph N/A Snow Light Snow
6:55 PM 15.8 °F -1.1 °F 11.3 °F 82% 29.70 in 4.0 mi NNW 19.6 mph 23.0 mph N/A Snow Light Snow
7:00 PM 15.8 °F -2.3 °F 10.4 °F 79% 29.69 in 4.0 mi NNW 23.0 mph - N/A Snow Light Snow
7:15 PM 14.9 °F -3.9 °F 9.0 °F 77% 29.68 in 7.0 mi North 24.2 mph 33.4 mph N/A   Overcast
7:35 PM 14.9 °F -3.1 °F 9.3 °F 79% 29.68 in 10.0 mi North 21.9 mph 29.9 mph N/A   Overcast
7:55 PM 14.9 °F -1.8 °F 9.9 °F 80% 29.70 in 7.0 mi NNW 18.4 mph - N/A Snow Light Snow
8:15 PM 14.4 °F -5.0 °F 8.8 °F 79% 29.71 in 7.0 mi North 25.3 mph 31.1 mph N/A   Overcast
8:35 PM 14.4 °F -3.8 °F 9.5 °F 81% 29.72 in 4.0 mi North 21.9 mph 27.6 mph N/A Snow Light Snow
8:55 PM 14.4 °F -2.5 °F 9.5 °F 81% 29.72 in 3.0 mi NNW 18.4 mph 24.2 mph N/A Snow Light Snow
9:15 PM 13.8 °F -3.7 °F 8.4 °F 79% 29.72 in 5.0 mi North 19.6 mph 29.9 mph N/A Snow Light Snow
9:35 PM 13.6 °F -5.2 °F 8.2 °F 79% 29.73 in 7.0 mi NNW 23.0 mph 29.9 mph N/A Snow Light Snow
9:55 PM 13.1 °F -5.5 °F 7.3 °F 78% 29.73 in 7.0 mi NNW 21.9 mph - N/A Snow Light Snow
10:03 PM 12.2 °F -7.1 °F 6.8 °F 79% 29.74 in 5.0 mi North 23.0 mph 27.6 mph N/A Snow Light Snow
10:15 PM 12.7 °F -6.8 °F 7.3 °F 79% 29.73 in 5.0 mi North 24.2 mph - N/A Snow Light Snow
10:35 PM 12.6 °F -4.4 °F 7.2 °F 79% 29.73 in 3.0 mi North 17.3 mph 26.5 mph N/A Snow Light Snow
10:55 PM 12.6 °F -3.3 °F 7.3 °F 80% 29.73 in 4.0 mi NNW 15.0 mph - N/A Snow Light Snow
11:15 PM 11.8 °F -5.8 °F 6.8 °F 80% 29.72 in 5.0 mi NNW 18.4 mph 26.5 mph N/A Snow Light Snow
11:35 PM 11.7 °F -5.5 °F 6.1 °F 78% 29.71 in 7.0 mi North 17.3 mph 26.5 mph N/A Snow Light Snow
11:55 PM 11.8 °F -4.8 °F 6.8 °F 80% 29.73 in 5.0 mi NNW 16.1 mph 20.7 mph N/A Snow Light Snow